Weather History for Kimball, NE

Change the Weather History Date:

Saturday, March 30, 2013

  Actual Average (KSNY) Record (KSNY)
Temperature  
Mean Temperature 45 °F 42 °F  
Max Temperature 58 °F 57 °F 82 °F (2010)
Min Temperature 32 °F 28 °F -6 °F (1975)
Degree Days  
Heating Degree Days 20 23  
Month to date heating degree days 782  
Since 1 July heating degree days 5364  
Cooling Degree Days 0 0  
Month to date cooling degree days 0  
Year to date cooling degree days 0  
Moisture  
Dew Point 32 °F    
Average Humidity 62    
Maximum Humidity 90    
Minimum Humidity 36    
Precipitation  
Precipitation 0.00 in 0.05 in 0.50 in (1953)
Month to date precipitation 1.05  
Year to date precipitation 1.57  
Sea Level Pressure  
Sea Level Pressure 30.09 in    
Wind  
Wind Speed 11 mph (NW)    
Max Wind Speed 21 mph    
Max Gust Speed 26 mph    
Visibility 10 miles    
Events Rain    
T = Trace of Precipitation, MM = Missing Value Source: NWS Daily Summary

Daily Weather History Graph

Daily Weather History Graph

Search for Another Location

Airport:

Trip Planner

Search our weather history database for the weather conditions in past years. The results will help you decide how hot, cold, wet, or windy it might be!

Date:

Astronomy

Mar. 30, 2013 Rise Set
Actual Time 7:40 AM CDT 8:17 PM CDT
Civil Twilight 7:13 AM CDT 8:45 PM CDT
Nautical Twilight 6:40 AM CDT 9:18 PM CDT
Astronomical Twilight 6:06 AM CDT 9:52 PM CDT
Moon No Moon Rise 9:35 AM CDT (3/30)
Length of Visible Light 13h 32m
Length of Day
12h 37m
Waning Gibbous, 86% of the Moon is Illuminated
Mar 30
Waning Gibbous
Apr 2
Last Quarter
Apr 10
New
Apr 18
First Quarter
Apr 25
Full

Hourly Weather History & Observations

Time (CDT) Temp. Windchill Dew Point Humidity Pressure Visibility Wind Dir Wind Speed Gust Speed Precip Events Conditions
12:15 AM 48.4 °F - 32.2 °F 54% 30.07 in 10.0 mi WNW 15.0 mph - N/A   Scattered Clouds
12:35 AM 48.9 °F - 32.2 °F 52% 30.08 in 10.0 mi West 12.7 mph - N/A   Scattered Clouds
12:55 AM 45.3 °F 40.6 °F 32.5 °F 61% 30.07 in 10.0 mi WNW 9.2 mph - N/A   Clear
1:15 AM 44.6 °F 39.2 °F 32.9 °F 64% 30.07 in 10.0 mi WNW 10.4 mph - N/A   Clear
1:35 AM 43.9 °F 37.9 °F 33.8 °F 68% 30.07 in 10.0 mi WNW 11.5 mph - N/A   Clear
1:55 AM 43.5 °F 37.1 °F 33.8 °F 69% 30.07 in 10.0 mi NW 12.7 mph - N/A   Clear
2:15 AM 45.1 °F 38.4 °F 34.0 °F 65% 30.07 in 10.0 mi NW 15.0 mph - N/A   Clear
2:35 AM 43.5 °F 37.1 °F 33.8 °F 69% 30.07 in 10.0 mi NW 12.7 mph - N/A   Clear
2:55 AM 42.6 °F 36.3 °F 33.4 °F 70% 30.07 in 10.0 mi West 11.5 mph - N/A   Clear
3:15 AM 41.0 °F 34.7 °F 33.3 °F 74% 30.07 in 10.0 mi WNW 10.4 mph - N/A   Clear
3:35 AM 41.0 °F 33.9 °F 33.1 °F 73% 30.07 in 10.0 mi WNW 12.7 mph - N/A   Clear
3:55 AM 41.5 °F 35.4 °F 32.9 °F 71% 30.08 in 10.0 mi WNW 10.4 mph - N/A   Clear
4:15 AM 39.6 °F 33.0 °F 32.4 °F 75% 30.08 in 10.0 mi WNW 10.4 mph - N/A   Clear
4:35 AM 39.0 °F 32.8 °F 32.5 °F 78% 30.08 in 10.0 mi NW 9.2 mph - N/A   Clear
4:55 AM 39.9 °F 32.9 °F 32.7 °F 75% 30.08 in 10.0 mi NW 11.5 mph - N/A   Clear
5:15 AM 40.3 °F 34.4 °F 32.5 °F 74% 30.08 in 10.0 mi NW 9.2 mph - N/A   Clear
5:35 AM 39.2 °F 33.6 °F 32.0 °F 75% 30.08 in 10.0 mi NW 8.1 mph - N/A   Clear
5:55 AM 37.2 °F 33.6 °F 32.0 °F 81% 30.08 in 10.0 mi NW 4.6 mph - N/A   Clear
6:15 AM 36.5 °F 31.8 °F 31.8 °F 83% 30.08 in 10.0 mi NW 5.8 mph - N/A   Clear
6:35 AM 34.7 °F 27.5 °F 30.7 °F 85% 30.09 in 10.0 mi WNW 9.2 mph - N/A   Clear
6:55 AM 34.0 °F 27.2 °F 30.6 °F 87% 30.09 in 10.0 mi NW 8.1 mph - N/A   Clear
7:15 AM 35.8 °F 30.1 °F 31.3 °F 84% 30.10 in 10.0 mi NW 6.9 mph - N/A   Clear
7:35 AM 34.2 °F 30.0 °F 30.6 °F 87% 30.10 in 10.0 mi West 4.6 mph - N/A   Clear
7:55 AM 33.6 °F 27.5 °F 30.4 °F 88% 30.10 in 10.0 mi WNW 6.9 mph - N/A   Clear
8:15 AM 33.6 °F 28.4 °F 30.9 °F 90% 30.10 in 10.0 mi WNW 5.8 mph - N/A   Clear
8:35 AM 36.3 °F 31.6 °F 32.0 °F 84% 30.10 in 10.0 mi West 5.8 mph - N/A   Clear
8:55 AM 40.1 °F 33.6 °F 33.6 °F 78% 30.11 in 10.0 mi WNW 10.4 mph - N/A   Clear
9:15 AM 42.6 °F 37.8 °F 33.6 °F 70% 30.12 in 10.0 mi NW 8.1 mph - N/A   Clear
9:35 AM 43.9 °F 39.3 °F 34.0 °F 68% 30.11 in 10.0 mi NNW 8.1 mph - N/A   Clear
9:55 AM 46.8 °F - 34.9 °F 63% 30.11 in 10.0 mi NNW 8.1 mph - N/A   Clear
10:15 AM 48.4 °F - 34.7 °F 59% 30.11 in 10.0 mi NNW 9.2 mph - N/A   Clear
10:35 AM 49.8 °F - 33.4 °F 53% 30.11 in 10.0 mi North 8.1 mph - N/A   Clear
10:55 AM 51.1 °F - 32.4 °F 49% 30.10 in 10.0 mi NNE 8.1 mph - N/A   Clear
11:15 AM 51.6 °F - 32.9 °F 49% 30.10 in 10.0 mi Calm Calm - N/A   Clear
11:35 AM 52.3 °F - 32.9 °F 48% 30.09 in 10.0 mi WNW 6.9 mph - N/A   Clear
11:55 AM 53.2 °F - 32.9 °F 46% 30.09 in 10.0 mi WNW 9.2 mph - N/A   Clear
12:15 PM 54.0 °F - 32.4 °F 44% 30.09 in 10.0 mi NNW 5.8 mph 9.2 mph N/A   Scattered Clouds
12:35 PM 55.4 °F - 32.0 °F 41% 30.08 in 10.0 mi NW 9.2 mph 17.3 mph N/A   Clear
12:55 PM 55.9 °F - 32.2 °F 41% 30.08 in 10.0 mi NNW 13.8 mph 18.4 mph N/A   Scattered Clouds
1:15 PM 57.2 °F - 32.2 °F 39% 30.07 in 10.0 mi North 11.5 mph 16.1 mph N/A   Scattered Clouds
1:35 PM 57.2 °F - 32.0 °F 38% 30.06 in 10.0 mi North 17.3 mph 25.3 mph N/A   Clear
1:55 PM 56.8 °F - 31.6 °F 38% 30.06 in 10.0 mi NNW 15.0 mph 21.9 mph N/A   Scattered Clouds
2:15 PM 58.3 °F - 31.6 °F 36% 30.05 in 10.0 mi North 16.1 mph 23.0 mph N/A   Scattered Clouds
2:35 PM 56.3 °F - 32.0 °F 40% 30.05 in 10.0 mi North 16.1 mph 20.7 mph N/A   Scattered Clouds
2:55 PM 56.5 °F - 31.8 °F 39% 30.05 in 10.0 mi NNW 12.7 mph 18.4 mph N/A   Mostly Cloudy
3:15 PM 55.4 °F - 32.2 °F 41% 30.05 in 10.0 mi NW 12.7 mph - N/A   Overcast
3:35 PM 53.1 °F - 35.1 °F 50% 30.06 in 10.0 mi North 13.8 mph 23.0 mph N/A Rain Light Rain
3:55 PM 54.0 °F - 33.4 °F 46% 30.06 in 10.0 mi NNW 15.0 mph 20.7 mph N/A   Overcast
4:15 PM 54.5 °F - 34.0 °F 46% 30.07 in 10.0 mi North 18.4 mph 23.0 mph N/A   Overcast
4:35 PM 54.5 °F - 34.9 °F 48% 30.07 in 10.0 mi NNW 16.1 mph 24.2 mph N/A   Mostly Cloudy
4:55 PM 52.9 °F - 34.5 °F 50% 30.07 in 10.0 mi North 18.4 mph - N/A   Mostly Cloudy
5:15 PM 52.3 °F - 32.7 °F 47% 30.07 in 10.0 mi NW 16.1 mph 19.6 mph N/A   Mostly Cloudy
5:35 PM 51.8 °F - 32.4 °F 48% 30.08 in 10.0 mi NNW 16.1 mph 21.9 mph N/A   Overcast
5:55 PM 51.4 °F - 32.4 °F 48% 30.08 in 10.0 mi NW 9.2 mph 18.4 mph N/A Rain Light Rain
6:15 PM 52.0 °F - 31.8 °F 46% 30.08 in 10.0 mi NW 15.0 mph 21.9 mph N/A   Mostly Cloudy
6:35 PM 52.0 °F - 30.0 °F 43% 30.08 in 10.0 mi NNW 20.7 mph 26.5 mph N/A   Mostly Cloudy
6:55 PM 51.1 °F - 29.7 °F 44% 30.09 in 10.0 mi NNW 17.3 mph 24.2 mph N/A   Scattered Clouds
7:15 PM 51.1 °F - 29.3 °F 43% 30.10 in 10.0 mi NNW 19.6 mph 25.3 mph N/A   Clear
7:35 PM 48.4 °F - 33.6 °F 57% 30.11 in 10.0 mi NNW 17.3 mph - N/A   Clear
7:55 PM 48.0 °F - 32.0 °F 54% 30.11 in 10.0 mi NNW 18.4 mph - N/A   Scattered Clouds
8:15 PM 46.4 °F 40.7 °F 31.1 °F 55% 30.12 in 10.0 mi NNW 12.7 mph 19.6 mph N/A   Scattered Clouds
8:35 PM 44.2 °F 39.2 °F 32.0 °F 62% 30.12 in 10.0 mi NNW 9.2 mph - N/A   Clear
8:55 PM 43.3 °F 38.6 °F 32.0 °F 64% 30.13 in 10.0 mi NNW 8.1 mph - N/A   Clear
9:15 PM 40.8 °F 36.2 °F 31.8 °F 70% 30.14 in 10.0 mi NNW 6.9 mph - N/A   Clear
9:35 PM 40.5 °F 36.5 °F 31.8 °F 71% 30.15 in 10.0 mi NW 5.8 mph - N/A   Clear
9:55 PM 39.6 °F 36.3 °F 31.1 °F 72% 30.15 in 10.0 mi NW 4.6 mph - N/A   Scattered Clouds
10:15 PM 38.5 °F 35.0 °F 30.6 °F 73% 30.16 in 10.0 mi NNW 4.6 mph - N/A   Clear
10:35 PM 37.9 °F 33.5 °F 30.6 °F 75% 30.17 in 10.0 mi NW 5.8 mph - N/A   Clear
10:55 PM 34.5 °F 31.6 °F 29.3 °F 81% 30.17 in 10.0 mi NNW 3.5 mph - N/A   Clear
11:15 PM 33.1 °F 28.7 °F 28.8 °F 84% 30.17 in 10.0 mi WNW 4.6 mph - N/A   Clear
11:35 PM 32.4 °F 26.0 °F 28.2 °F 85% 30.17 in 10.0 mi WNW 6.9 mph - N/A   Clear
11:55 PM 32.0 °F 24.8 °F 28.4 °F 87% 30.17 in 10.0 mi WNW 8.1 mph - N/A   Clear